Dewpoint
69 69 70 70 70 70 70 71 71 72 72 72 71 71 72 73 72 73 74 74 74 74 74 74 74 74 73 74 73 74 75 75 76 76 76 76 76 76 76 76 76 75 76 75 75 75 76 75 75 75 74 74 74 73 74 74 75 75 75 74 73 73 73 72 71 70 71 72 71 71 72 72 71 73 71 71 72 73 73 74 74 73 73 74 74
69 69 70 70 69 69 70 70 71 72 72 72 72 71 71 72 73 73 73 73 74 74 74 74 74 74 73 73 74 74 75 75 75 75 75 75 75 74 75 75 75 75 75 75 75 75 75 75 75 75 75 74 74 73 73 73 73 73 73 73 72 72 73 72 71 70 69 71 71 71 71 73 71 73 71 71 72 74 73 74 72 73 74 75 75
69 70 70 70 70 70 70 70 71 71 71 71 71 71 71 72 73 73 72 72 73 73 73 73 74 74 74 74 74 74 75 74 75 75 75 75 75 74 75 75 75 74 74 74 74 75 74 75 74 75 74 74 74 74 74 74 73 73 73 72 72 71 72 72 71 70 69 70 71 70 73 73 71 72 73 72 74 73 74 72 71 71 73 74 74
70 70 70 70 70 70 70 71 71 71 71 71 71 71 71 72 73 72 72 72 72 73 73 73 73 74 73 74 74 74 74 74 75 75 75 75 75 75 75 75 75 74 74 74 74 74 74 74 74 74 74 74 74 74 74 74 74 74 73 73 73 72 72 72 72 71 70 69 71 71 72 71 72 72 72 73 71 73 72 73 73 73 74 73 74
71 70 71 71 71 71 71 71 71 71 71 71 71 71 71 71 72 72 72 72 72 72 73 74 73 73 72 73 73 74 74 74 75 74 75 75 75 74 75 75 75 75 74 75 75 75 74 74 74 74 74 73 73 73 73 73 73 73 72 73 72 72 72 72 72 71 71 70 70 71 71 72 73 73 73 72 72 73 74 73 72 74 75 74 73
71 70 71 71 71 71 71 71 71 71 71 71 71 71 71 71 71 72 72 72 72 72 72 72 72 73 73 73 73 73 74 74 74 74 74 74 74 74 75 75 75 75 75 74 74 75 74 75 74 74 74 73 73 73 74 73 72 72 72 72 72 71 72 71 72 71 71 70 70 70 72 71 72 73 72 73 71 71 72 73 74 75 75 74 73
72 71 71 71 71 71 71 71 71 71 72 71 71 71 71 71 71 70 71 72 71 71 71 72 72 72 73 73 73 73 73 73 74 74 74 74 73 73 73 74 74 74 74 74 74 74 74 74 75 75 74 74 73 73 73 73 72 72 73 73 72 71 70 71 71 70 70 70 70 70 70 71 71 72 73 73 72 72 71 72 73 75 75 75 74
72 72 72 71 71 71 71 71 72 72 72 72 72 71 71 70 71 71 71 71 70 70 70 70 71 72 72 73 73 73 73 73 73 74 74 73 73 72 72 72 72 73 73 74 74 74 74 74 74 74 74 74 74 74 74 74 74 72 72 72 72 71 70 70 70 71 70 70 70 70 70 72 73 71 71 72 72 72 73 72 72 73 74 75 73
72 72 72 72 72 72 72 72 72 72 72 71 71 71 71 71 71 71 71 70 69 70 71 70 71 72 72 73 73 73 73 73 73 73 73 73 72 72 72 72 72 73 73 73 73 74 74 74 73 73 74 76 76 76 75 74 72 73 73 72 72 71 71 71 71 72 71 70 71 71 71 71 71 70 70 72 71 71 71 72 73 74 74 72 72
72 72 72 72 72 72 71 71 71 71 71 71 71 71 71 71 71 72 71 70 70 71 71 71 71 71 72 72 73 73 72 73 73 74 74 73 72 71 72 72 72 72 72 72 72 72 73 73 73 76 76 77 78 78 78 77 76 73 72 73 72 72 71 71 71 71 71 71 70 70 69 68 68 70 70 70 71 72 72 73 72 73 72 71 71
70 70 70 70 70 70 71 71 70 70 70 71 71 71 71 71 71 72 72 72 71 71 71 70 70 71 71 71 72 71 72 72 71 66 67 70 73 72 72 72 72 72 71 72 72 72 72 72 72 73 74 76 77 78 78 78 78 78 77 76 74 71 71 70 70 70 71 70 70 69 68 69 69 70 70 70 71 71 72 73 72 71 70 68 67
68 69 69 69 69 70 70 70 70 70 70 70 70 71 71 71 71 72 71 71 72 71 70 70 70 71 72 71 71 71 71 72 66 67 67 67 71 73 72 71 71 71 71 71 71 71 71 71 71 70 71 72 72 73 74 75 75 76 77 77 77 74 72 71 71 71 71 70 70 69 69 70 71 72 71 71 72 73 73 73 72 70 69 69 69
68 69 69 69 70 70 69 69 70 70 70 70 71 71 71 71 72 72 71 72 72 71 71 71 70 71 71 71 71 72 72 69 67 67 67 67 68 72 73 73 73 71 71 72 71 72 72 72 71 71 70 74 75 76 75 75 77 77 76 77 78 76 71 69 70 72 72 71 70 71 70 72 72 73 72 73 73 72 72 70 70 70 70 69 69
69 69 69 68 69 70 69 70 70 70 70 70 70 71 72 72 72 73 73 72 71 71 72 71 71 71 71 71 72 71 69 65 64 64 65 65 65 67 69 69 69 70 71 71 71 71 72 72 71 70 71 72 73 73 73 74 76 77 75 75 75 77 76 72 71 71 72 70 72 72 73 72 73 73 74 74 72 71 70 69 70 69 70 69 70
69 69 69 69 69 69 70 70 70 70 70 70 70 70 70 71 72 72 72 72 71 71 71 70 70 71 71 70 70 68 64 60 61 62 61 61 63 67 68 68 68 69 71 72 72 72 72 71 71 70 72 72 71 71 72 73 75 75 75 75 74 74 74 75 75 74 73 72 72 73 73 73 74 74 73 72 70 71 70 70 70 70 70 71 71
68 68 67 68 68 68 69 69 69 69 69 69 69 69 69 70 70 71 72 71 71 72 71 71 70 69 71 71 69 68 64 57 57 57 57 58 63 67 68 69 70 70 71 71 72 73 73 72 72 72 72 71 70 66 68 72 73 74 75 73 72 70 69 70 66 70 73 73 74 74 72 73 69 72 72 69 69 69 69 69 70 71 70 69 67
66 67 67 67 67 67 67 68 68 68 68 68 68 68 68 69 69 71 71 70 71 70 70 70 71 71 70 70 69 67 64 57 55 55 55 57 61 68 70 71 70 70 70 70 72 72 73 72 73 72 72 71 67 62 64 72 73 73 73 73 71 69 67 67 67 66 65 64 64 64 63 63 63 62 61 61 69 68 70 70 67 67 68 67 66
66 66 66 66 66 66 67 67 67 67 67 67 67 67 68 69 69 70 70 69 69 70 70 69 70 70 70 68 68 66 63 59 54 54 54 56 63 67 69 70 70 70 71 71 71 72 72 73 73 71 70 69 63 61 65 71 71 71 71 71 70 70 67 66 68 69 67 66 66 65 65 65 64 63 63 64 64 67 70 67 66 67 65 65 64
65 65 66 66 67 67 67 66 66 67 67 66 67 67 68 69 70 69 69 69 69 70 70 69 68 68 68 67 67 63 63 60 54 53 54 55 63 67 69 70 71 71 70 70 70 71 71 73 74 73 71 69 60 61 64 71 70 70 70 70 70 70 69 66 69 69 69 69 70 69 68 67 68 67 67 66 66 67 67 66 66 66 64 63 63
62 64 65 66 66 66 65 65 65 65 66 66 66 66 68 68 68 69 69 69 69 70 71 69 66 64 64 64 63 62 62 61 59 53 52 54 58 66 66 68 67 68 69 70 71 71 70 69 71 68 64 60 57 59 61 64 69 69 69 69 68 68 67 65 69 69 69 70 69 67 65 65 63 64 63 63 63 65 65 65 66 66 64 63 62
62 62 64 65 66 66 66 65 65 65 67 66 67 67 67 67 68 68 68 68 68 68 67 65 64 64 64 64 64 64 63 62 60 53 52 53 55 62 65 65 65 66 67 68 69 69 69 68 66 62 57 56 55 55 55 59 64 67 66 67 68 69 67 66 70 70 69 69 65 64 63 63 63 62 62 62 61 61 61 62 63 64 64 63 61
62 61 62 62 63 65 66 67 68 68 68 67 65 65 66 67 67 67 66 66 65 64 64 64 62 62 62 63 63 63 64 63 61 55 52 51 53 56 64 65 65 65 65 65 66 66 64 66 65 60 55 55 54 52 52 55 58 66 64 60 61 62 65 67 67 68 68 64 62 62 61 61 60 60 60 60 60 61 59 60 62 62 63 63 62
59 60 61 61 63 63 63 63 64 64 63 63 62 62 63 65 66 66 65 64 63 62 62 62 61 61 61 61 61 60 60 61 61 60 54 51 51 53 55 60 59 64 63 62 62 62 62 62 63 61 54 51 50 51 51 52 58 62 59 56 56 60 66 67 67 67 65 61 61 60 61 60 60 60 60 59 59 61 59 60 61 62 63 61 59
58 58 60 58 58 58 57 57 57 58 60 60 60 59 60 61 63 65 65 63 61 61 61 60 60 60 59 59 57 58 57 57 59 59 58 54 52 51 53 54 56 61 62 62 62 62 61 60 60 54 50 48 49 52 53 55 60 55 54 56 58 62 66 66 67 65 62 61 61 60 60 60 60 60 60 61 60 62 61 61 62 61 60 58 59
57 56 56 55 55 54 54 54 54 54 54 56 58 58 59 60 60 61 65 62 60 60 60 60 60 59 57 55 55 54 53 53 53 56 57 57 54 52 53 54 56 56 61 60 61 60 57 52 51 50 51 50 51 52 55 57 53 52 53 56 63 64 65 66 66 62 60 60 60 60 60 61 60 60 62 62 63 62 61 61 61 61 60 59 58
59 57 56 55 53 53 51 51 52 52 52 53 55 55 57 59 60 60 61 63 62 61 61 61 61 58 55 55 55 54 54 52 52 53 55 56 54 54 53 55 58 58 59 57 56 55 54 54 54 53 53 55 59 61 62 61 61 57 56 59 64 65 66 66 63 60 61 60 60 59 59 60 60 61 61 62 61 61 61 61 60 59 58 57 56
61 60 59 59 58 57 55 53 52 52 51 50 51 54 55 56 57 59 59 60 62 63 63 62 60 59 56 54 54 54 52 52 52 52 52 51 51 52 52 53 54 54 55 54 54 54 58 60 60 57 56 59 60 61 61 61 64 62 63 65 65 65 66 66 62 60 61 60 61 61 60 60 61 61 60 60 60 61 61 60 57 56 57 55 56
57 58 58 58 58 58 59 59 54 51 51 51 51 52 53 54 54 55 55 56 59 59 59 59 58 56 55 54 53 53 52 53 52 50 51 50 50 50 51 51 50 50 51 51 51 54 58 60 59 62 62 63 62 62 62 63 64 64 64 65 65 66 67 63 63 63 62 61 61 61 60 60 59 59 58 58 58 59 60 59 56 56 55 55 54
58 55 56 57 57 58 54 53 53 52 52 53 52 52 51 53 54 54 54 52 53 55 57 57 57 56 56 55 54 51 51 51 52 48 50 46 48 47 50 48 47 48 51 49 53 58 59 59 59 59 60 62 62 62 63 63 63 64 63 64 65 66 63 60 59 60 60 59 59 59 60 58 59 58 58 57 58 57 58 58 58 56 56 55 52
56 56 57 57 57 56 55 54 54 54 51 51 51 52 51 47 49 54 53 52 47 44 46 53 54 52 51 52 55 55 52 51 47 42 40 40 41 42 42 41 40 44 48 47 54 58 58 58 58 58 58 58 58 59 59 60 60 59 59 59 58 57 57 58 58 58 59 59 59 57 58 58 57 58 57 55 56 55 56 57 56 56 55 53 52
57 58 60 59 59 59 56 54 54 54 54 53 53 53 52 51 42 44 49 50 45 41 40 42 46 50 56 52 52 49 48 44 40 40 40 40 39 39 39 39 39 40 42 51 57 57 57 56 56 56 57 57 57 57 57 57 57 56 55 56 56 56 56 56 56 57 57 56 57 57 57 57 57 57 55 55 54 53 54 54 55 55 54 53 52
57 57 58 60 61 60 59 59 57 56 55 55 55 54 52 52 52 45 42 46 44 41 40 39 40 41 42 47 53 52 49 43 41 41 40 40 40 41 41 42 42 42 43 48 56 55 55 55 55 55 55 54 55 56 55 55 55 55 55 54 54 55 55 54 54 54 54 54 54 55 55 55 54 54 53 53 53 52 52 52 52 52 52 51 51
55 55 58 60 61 63 60 60 59 58 56 57 56 54 53 53 51 52 52 43 42 41 41 40 40 40 41 40 40 42 41 41 41 41 41 42 43 44 44 44 44 44 50 55 55 54 54 54 53 54 53 53 53 54 54 54 53 53 53 53 53 52 53 54 54 54 53 53 53 52 52 52 52 52 52 52 52 51 51 51 51 51 50 49 49
54 56 58 57 56 56 56 56 56 56 57 58 57 56 56 55 53 53 52 52 53 49 44 41 41 44 42 41 41 41 41 42 42 42 42 43 43 44 45 51 46 46 50 55 54 53 53 53 53 53 53 54 53 53 53 53 54 53 53 52 52 53 53 53 52 52 52 51 51 51 51 51 51 51 50 50 50 50 49 49 49 48 48 47 47
52 57 61 62 54 55 55 55 54 55 57 57 57 60 60 60 57 56 54 54 52 52 52 54 48 42 49 48 41 41 42 42 42 42 42 43 44 45 49 54 53 53 53 54 53 52 52 52 51 52 51 52 53 53 52 52 52 52 52 51 51 51 51 50 50 50 49 49 49 49 50 50 50 50 50 49 48 47 47 47 47 47 47 47 47
53 54 54 57 56 54 54 54 52 52 51 53 57 60 61 62 61 60 56 56 56 53 54 54 55 52 46 42 41 42 42 42 42 43 43 44 46 48 53 52 51 51 51 50 50 51 51 51 50 50 50 50 51 51 51 51 51 51 50 50 50 49 48 48 48 48 48 48 48 49 48 48 48 47 47 47 47 47 46 45 45 46 46 46 46
54 54 53 53 55 55 55 56 55 55 57 58 57 57 59 59 60 61 59 57 57 56 54 54 53 54 54 55 51 44 42 42 43 43 43 44 46 51 51 50 50 49 50 49 49 49 48 48 49 49 49 49 49 49 50 49 49 50 50 50 50 49 48 47 47 48 47 46 46 47 46 46 46 46 44 44 44 44 44 44 43 44 44 43 43
53 53 53 53 54 54 54 55 58 61 60 58 58 57 59 59 59 61 60 59 59 57 54 53 53 52 50 52 55 51 52 47 45 45 45 45 48 50 50 50 50 49 49 48 48 47 47 47 48 48 48 48 49 49 49 48 47 46 46 46 47 47 47 46 47 46 46 45 44 43 43 42 43 44 44 43 42 42 41 42 41 41 42 42 42
52 55 58 58 59 54 53 57 59 59 59 58 55 59 61 58 57 57 58 60 58 56 54 54 55 53 51 52 52 53 52 50 49 49 49 48 49 48 48 48 48 47 47 47 47 47 46 46 47 48 48 48 48 48 48 47 46 46 44 43 43 43 44 42 43 44 42 41 41 41 41 40 40 39 40 40 41 40 39 39 39 40 39 39 40
56 54 53 56 58 57 58 57 57 57 59 58 56 58 61 58 56 57 56 56 56 55 54 55 53 51 51 50 51 51 51 50 49 49 48 48 48 48 48 47 47 46 46 46 45 45 45 45 46 46 47 47 47 47 47 47 46 44 43 42 42 42 41 42 42 41 40 40 40 41 40 40 40 39 38 39 40 40 39 38 39 40 39 40 40
53 53 56 56 54 55 55 55 56 56 54 56 55 57 56 56 56 56 56 56 56 56 55 52 49 47 48 47 45 48 51 50 49 49 48 47 47 47 47 47 47 47 46 46 46 46 46 46 46 46 46 46 45 45 45 45 44 43 43 42 42 41 40 41 41 40 40 40 40 39 40 40 40 38 37 39 40 38 38 38 38 38 39 40 40
54 54 54 55 55 55 55 54 54 55 55 56 55 54 58 58 57 56 56 56 56 55 51 49 47 48 46 44 43 44 49 49 49 49 48 47 47 47 46 46 46 46 45 45 46 46 46 47 46 46 46 46 46 45 45 44 43 42 41 41 41 41 40 39 40 40 40 39 39 39 38 38 38 38 38 38 38 37 37 37 37 38 39 40 39
57 57 56 57 56 55 55 54 55 55 54 55 55 56 56 56 55 56 56 56 55 52 49 48 49 50 48 46 47 47 48 48 49 47 46 46 46 46 45 44 44 45 45 45 45 46 46 45 45 45 45 45 45 45 44 43 42 41 41 41 41 40 40 40 39 39 38 39 38 38 38 38 37 36 37 38 37 38 38 38 39 39 40 39 40
56 57 57 57 57 57 57 56 54 54 54 54 56 56 56 55 55 56 55 55 53 51 48 48 49 48 47 46 46 47 47 47 46 46 46 46 45 44 43 44 43 44 44 44 44 45 45 45 44 43 42 42 42 43 43 42 41 41 40 40 40 40 39 39 39 39 39 38 38 38 37 38 37 36 37 38 38 39 38 39 39 39 39 39 40
55 56 56 55 55 56 55 55 55 54 55 55 56 55 56 52 53 54 54 53 53 50 49 50 49 48 47 46 46 46 45 46 47 46 45 44 44 43 43 43 43 43 43 43 44 44 45 44 44 43 42 41 41 41 41 41 41 40 40 39 38 38 38 38 38 38 37 38 36 36 36 36 36 36 37 38 39 38 38 38 39 40 40 40 40
55 55 55 55 54 55 54 53 56 52 51 51 52 53 51 51 51 53 52 52 53 51 52 50 48 47 47 46 46 47 45 45 45 45 45 44 43 42 42 42 42 42 42 43 44 44 44 44 43 41 41 40 40 40 40 41 40 40 39 39 38 38 38 38 38 38 37 37 37 37 36 37 36 37 38 38 38 38 38 39 40 40 40 40 40
53 55 54 55 53 53 53 55 54 53 51 50 49 49 49 50 50 50 51 51 50 52 50 46 46 45 46 45 45 45 45 44 44 43 43 43 42 42 42 42 41 41 41 42 43 43 44 44 43 42 41 40 40 40 40 39 39 39 39 38 38 38 38 38 37 38 37 38 38 37 36 37 37 37 37 38 38 38 39 39 40 40 40 40 41
52 53 53 53 53 53 53 53 54 54 54 53 51 53 53 52 52 51 51 51 50 48 49 47 47 45 45 44 45 44 44 43 43 43 42 41 41 41 42 42 42 41 42 41 42 42 43 43 43 42 42 41 41 39 39 39 39 39 38 38 38 38 38 39 38 38 38 38 38 38 37 36 36 36 37 38 38 38 39 39 40 40 41 41 41
51 52 52 53 53 53 52 53 53 52 52 52 53 51 51 50 50 49 49 49 48 47 46 44 44 44 44 44 44 43 43 43 42 42 41 41 41 41 41 42 42 41 40 40 40 41 42 42 43 43 41 41 40 40 39 39 38 38 38 38 39 39 36 37 38 38 38 38 37 37 37 37 37 37 38 38 38 38 38 39 39 41 41 41 41
50 51 51 50 51 51 51 51 50 51 50 49 48 48 47 48 48 47 44 44 45 46 45 45 45 44 44 44 44 43 43 42 41 41 41 41 41 41 41 41 41 40 40 40 40 40 41 41 42 43 42 41 40 40 39 39 39 38 38 38 38 35 35 36 37 38 37 37 37 37 37 37 37 37 37 37 38 38 38 40 41 41 41 41 41
52 52 51 51 50 50 47 46 47 46 46 46 45 44 44 43 43 43 43 42 42 44 46 44 43 43 44 44 44 43 42 42 41 41 40 40 41 41 41 40 40 40 40 40 40 40 40 40 40 41 42 41 40 40 40 39 39 38 38 38 36 35 34 35 37 35 35 35 37 37 37 38 38 37 37 38 38 39 41 41 41 41 41 41 42